Location: Newark
(50.8964°N, 1.4048°W)
Time: 16:45:53
(UTC+00:00)

Envisat - Visible Passes

Search period start: 21 January 2020 00:00
Search period end: 31 January 2020 00:00
Orbit: 764 x 766 km, 98.1° (Epoch: 21 January)

Date Brightness Start Highest point End Pass type
(mag) Time Alt. Az. Time Alt. Az. Time Alt. Az.
21 Jan 6.2 05:22:52 10° NE 05:25:19 13° E 05:27:45 10° ESE visible
21 Jan 3.1 07:00:01 10° NNE 07:05:09 83° ESE 07:10:15 10° SSW visible
21 Jan 4.1 18:19:52 10° S 18:24:45 47° W 18:29:41 10° NNW visible
22 Jan 4.4 06:23:24 10° NNE 06:28:15 42° E 06:33:04 10° SSE visible
22 Jan 3.0 17:42:48 10° SSE 17:47:53 88° ENE 17:53:00 10° NNW visible
22 Jan 6.0 19:24:45 10° WSW 19:27:38 15° W 19:30:31 10° NW visible
23 Jan 5.6 05:47:15 10° NE 05:51:09 22° E 05:55:02 10° SE visible
23 Jan 5.0 18:46:01 10° SSW 18:50:25 29° W 18:54:52 10° NNW visible
24 Jan 6.4 05:12:44 10° ENE 05:13:50 11° E 05:14:56 10° E visible
24 Jan 3.4 06:48:45 10° NNE 06:53:50 69° ESE 06:58:54 10° S visible
24 Jan 3.7 18:08:25 10° S 18:13:24 58° W 18:18:27 10° NNW visible
25 Jan 4.8 06:12:14 10° NNE 06:16:53 34° E 06:21:30 10° SSE visible
25 Jan 3.0 17:31:32 10° SSE 17:36:36 73° ENE 17:41:42 10° N visible
25 Jan 5.8 19:12:42 10° SW 19:16:12 18° W 19:19:42 10° NW visible
26 Jan 5.9 05:36:18 10° NE 05:39:44 18° E 05:43:07 10° SE visible
26 Jan 4.7 18:34:23 10° SSW 18:39:02 36° W 18:43:43 10° NNW visible
27 Jan 3.8 06:37:29 10° NNE 06:42:31 56° E 06:47:30 10° S visible
27 Jan 3.3 17:57:01 10° S 18:02:05 71° WSW 18:07:12 10° NNW visible
27 Jan 6.4 19:40:39 10° W 19:42:04 11° W 19:43:29 10° WNW visible
28 Jan 5.2 06:01:06 10° NNE 06:05:30 28° E 06:09:52 10° SSE visible
28 Jan 3.0 17:20:21 10° SSE 17:25:20 60° ENE 17:30:21 10° N visible
28 Jan 5.5 19:00:49 10° SW 19:04:46 22° W 19:08:44 10° NW visible
29 Jan 6.2 05:25:30 10° NE 05:28:16 15° E 05:31:02 10° ESE visible
29 Jan 3.1 07:02:55 10° NNE 07:08:03 89° ESE 07:13:08 10° SSW visible
29 Jan 4.3 18:22:50 10° S 18:27:41 43° W 18:32:32 10° NNW visible
30 Jan 4.3 06:26:16 10° NNE 06:31:10 45° E 06:36:02 10° S visible
30 Jan 3.1 17:45:42 10° SSE 17:50:47 86° WSW 17:55:55 10° NNW visible
30 Jan 6.2 19:28:01 10° WSW 19:30:35 14° W 19:33:11 10° NW visible
